Time,TemperatureF,DewpointF,PressureIn,WindDirection,WindDirectionDegrees,WindSpeedMPH,WindSpeedGustMPH,Humidity,HourlyPrecipIn,Conditions,Clouds,dailyrainin,SoftwareType,DateUTC
2013-02-27 00:00:00,35.2,21.5,29.74,North,0,0.0,0.0,57,0.00,,---,0.00,VWS V14.00,2013-02-27 05:00:00,
2013-02-27 00:01:00,35.2,22.0,29.74,North,0,0.0,0.0,58,0.00,,---,0.00,VWS V14.00,2013-02-27 05:01:00,
2013-02-27 00:06:00,35.2,21.5,29.74,North,0,0.0,0.0,57,0.00,,---,0.00,VWS V14.00,2013-02-27 05:06:00,
2013-02-27 00:11:00,35.4,21.7,29.74,North,0,0.0,0.0,57,0.00,,---,0.00,VWS V14.00,2013-02-27 05:11:00,
2013-02-27 00:16:00,35.4,21.7,29.74,North,0,0.0,0.0,57,0.00,,---,0.00,VWS V14.00,2013-02-27 05:16:00,
2013-02-27 00:21:00,35.6,21.5,29.71,North,0,0.0,0.0,56,0.00,,---,0.00,VWS V14.00,2013-02-27 05:21:00,
2013-02-27 00:26:00,35.4,21.7,29.71,North,0,0.0,0.0,57,0.00,,---,0.00,VWS V14.00,2013-02-27 05:26:00,
2013-02-27 00:27:00,35.4,21.7,29.71,North,0,0.0,0.0,57,0.00,,---,0.00,VWS V14.00,2013-02-27 05:27:00,
2013-02-27 00:32:00,35.4,21.7,29.71,North,0,0.0,0.0,57,0.00,,---,0.00,VWS V14.00,2013-02-27 05:32:00,
2013-02-27 00:37:00,35.4,21.7,29.71,North,0,0.0,0.0,57,0.00,,---,0.00,VWS V14.00,2013-02-27 05:37:00,
2013-02-27 00:42:00,35.4,22.1,29.71,North,0,0.0,0.0,58,0.00,,---,0.00,VWS V14.00,2013-02-27 05:42:00,
2013-02-27 00:47:00,35.6,21.9,29.71,North,0,0.0,0.0,57,0.00,,---,0.00,VWS V14.00,2013-02-27 05:47:00,
2013-02-27 00:52:00,35.6,22.3,29.71,North,0,0.0,0.0,58,0.00,,---,0.00,VWS V14.00,2013-02-27 05:52:00,
2013-02-27 00:57:00,35.4,22.5,29.71,North,0,0.0,0.0,59,0.00,,---,0.00,VWS V14.00,2013-02-27 05:57:00,
2013-02-27 01:02:00,35.4,22.5,29.71,North,0,0.0,0.0,59,0.00,,---,0.00,VWS V14.00,2013-02-27 06:02:00,
2013-02-27 01:07:00,35.6,22.7,29.71,North,0,0.0,0.0,59,0.00,,---,0.00,VWS V14.00,2013-02-27 06:07:00,
2013-02-27 01:12:00,35.6,22.7,29.71,North,0,0.0,0.0,59,0.00,,---,0.00,VWS V14.00,2013-02-27 06:12:00,
2013-02-27 01:17:00,35.8,23.3,29.68,North,0,0.0,0.0,60,0.00,,---,0.00,VWS V14.00,2013-02-27 06:17:00,
2013-02-27 01:22:00,35.8,23.3,29.68,North,0,0.0,0.0,60,0.00,,---,0.00,VWS V14.00,2013-02-27 06:22:00,
2013-02-27 01:27:00,35.8,23.3,29.68,North,0,0.0,0.0,60,0.00,,---,0.00,VWS V14.00,2013-02-27 06:27:00,
2013-02-27 01:32:00,35.6,23.5,29.68,North,0,0.0,0.0,61,0.00,,---,0.00,VWS V14.00,2013-02-27 06:32:00,
2013-02-27 01:37:00,35.6,23.9,29.68,North,0,0.0,0.0,62,0.00,,---,0.00,VWS V14.00,2013-02-27 06:37:00,
2013-02-27 01:42:00,35.6,24.3,29.68,North,0,0.0,0.0,63,0.00,,---,0.00,VWS V14.00,2013-02-27 06:42:00,
2013-02-27 01:47:00,35.6,24.6,29.65,North,0,0.0,0.0,64,0.00,,---,0.00,VWS V14.00,2013-02-27 06:47:00,
2013-02-27 01:52:00,35.6,25.0,29.65,North,0,0.0,0.0,65,0.00,,---,0.00,VWS V14.00,2013-02-27 06:52:00,
2013-02-27 01:57:00,35.6,25.7,29.65,North,0,0.0,0.0,67,0.00,,---,0.00,VWS V14.00,2013-02-27 06:57:00,
2013-02-27 02:02:00,35.6,25.7,29.65,North,0,0.0,0.0,67,0.00,,---,0.00,VWS V14.00,2013-02-27 07:02:00,
2013-02-27 02:07:00,35.8,26.6,29.65,North,0,0.0,0.0,69,0.00,,---,0.00,VWS V14.00,2013-02-27 07:07:00,
2013-02-27 02:12:00,36.0,26.8,29.65,North,0,0.0,0.0,69,0.00,,---,0.00,VWS V14.00,2013-02-27 07:12:00,
2013-02-27 02:17:00,36.0,26.8,29.65,North,0,0.0,0.0,69,0.00,,---,0.00,VWS V14.00,2013-02-27 07:17:00,
2013-02-27 02:22:00,36.0,26.8,29.65,North,0,0.0,0.0,69,0.00,,---,0.00,VWS V14.00,2013-02-27 07:22:00,
2013-02-27 02:27:00,36.0,26.8,29.65,North,0,0.0,0.0,69,0.00,,---,0.00,VWS V14.00,2013-02-27 07:27:00,
2013-02-27 02:32:00,36.0,26.8,29.65,North,0,0.0,0.0,69,0.00,,---,0.00,VWS V14.00,2013-02-27 07:32:00,
2013-02-27 02:37:00,35.8,26.6,29.65,North,0,0.0,0.0,69,0.00,,---,0.00,VWS V14.00,2013-02-27 07:37:00,
2013-02-27 02:42:00,35.8,27.3,29.65,North,0,0.0,0.0,71,0.00,,---,0.00,VWS V14.00,2013-02-27 07:42:00,
2013-02-27 02:47:00,35.8,27.6,29.65,North,0,0.0,0.0,72,0.00,,---,0.00,VWS V14.00,2013-02-27 07:47:00,
2013-02-27 02:52:00,35.6,27.5,29.65,North,0,0.0,0.0,72,0.00,,---,0.00,VWS V14.00,2013-02-27 07:52:00,
2013-02-27 02:57:00,35.6,27.8,29.65,North,0,0.0,0.0,73,0.00,,---,0.00,VWS V14.00,2013-02-27 07:57:00,
2013-02-27 03:02:00,35.6,28.1,29.65,North,0,0.0,0.0,74,0.00,,---,0.00,VWS V14.00,2013-02-27 08:02:00,
2013-02-27 03:07:00,35.4,28.3,29.65,North,0,0.0,0.0,75,0.00,,---,0.00,VWS V14.00,2013-02-27 08:07:00,
2013-02-27 03:12:00,35.4,28.3,29.65,North,0,0.0,0.0,75,0.00,,---,0.00,VWS V14.00,2013-02-27 08:12:00,
2013-02-27 03:17:00,35.4,28.6,29.65,North,0,0.0,0.0,76,0.00,,---,0.00,VWS V14.00,2013-02-27 08:17:00,
2013-02-27 03:22:00,35.4,28.9,29.65,North,0,0.0,0.0,77,0.00,,---,0.00,VWS V14.00,2013-02-27 08:22:00,
2013-02-27 03:27:00,35.4,28.9,29.65,North,0,0.0,0.0,77,0.00,,---,0.00,VWS V14.00,2013-02-27 08:27:00,
2013-02-27 03:32:00,35.4,28.9,29.65,North,0,0.0,0.0,77,0.00,,---,0.00,VWS V14.00,2013-02-27 08:32:00,
2013-02-27 03:37:00,35.4,29.2,29.65,North,0,0.0,0.0,78,0.00,,---,0.00,VWS V14.00,2013-02-27 08:37:00,
2013-02-27 03:42:00,35.4,29.6,29.65,North,0,0.0,0.0,79,0.00,,---,0.00,VWS V14.00,2013-02-27 08:42:00,
2013-02-27 03:47:00,35.4,29.6,29.65,North,0,0.0,0.0,79,0.00,,---,0.00,VWS V14.00,2013-02-27 08:47:00,
2013-02-27 03:52:00,35.4,29.6,29.65,North,0,0.0,0.0,79,0.00,,---,0.00,VWS V14.00,2013-02-27 08:52:00,
2013-02-27 03:57:00,35.4,29.9,29.65,North,0,0.0,0.0,80,0.00,,---,0.00,VWS V14.00,2013-02-27 08:57:00,
2013-02-27 04:02:00,35.2,29.7,29.62,North,0,0.0,0.0,80,0.00,,---,0.00,VWS V14.00,2013-02-27 09:02:00,
2013-02-27 04:08:00,35.1,29.8,29.62,North,0,0.0,0.0,81,0.00,,---,0.00,VWS V14.00,2013-02-27 09:08:00,
2013-02-27 04:13:00,34.9,29.6,29.62,North,0,0.0,0.0,81,0.00,,---,0.00,VWS V14.00,2013-02-27 09:13:00,
2013-02-27 04:18:00,34.7,29.8,29.62,North,0,0.0,0.0,82,0.00,,---,0.00,VWS V14.00,2013-02-27 09:18:00,
2013-02-27 04:23:00,34.5,29.6,29.62,North,0,0.0,0.0,82,0.00,,---,0.00,VWS V14.00,2013-02-27 09:23:00,
2013-02-27 04:28:00,34.5,29.9,29.62,North,0,0.0,0.0,83,0.00,,---,0.00,VWS V14.00,2013-02-27 09:28:00,
2013-02-27 04:33:00,34.7,30.4,29.62,North,0,0.0,0.0,84,0.00,,---,0.00,VWS V14.00,2013-02-27 09:33:00,
2013-02-27 04:38:00,34.9,30.5,29.62,North,0,0.0,0.0,84,0.00,,---,0.00,VWS V14.00,2013-02-27 09:38:00,
2013-02-27 04:43:00,34.7,30.7,29.62,North,0,0.0,0.0,85,0.00,,---,0.00,VWS V14.00,2013-02-27 09:43:00,
2013-02-27 04:48:00,34.9,30.8,29.59,North,0,0.0,0.0,85,0.00,,---,0.00,VWS V14.00,2013-02-27 09:48:00,
2013-02-27 04:53:00,35.1,31.3,29.59,North,0,0.0,0.0,86,0.00,,---,0.00,VWS V14.00,2013-02-27 09:53:00,
2013-02-27 04:58:00,35.1,31.3,29.59,North,0,0.0,0.0,86,0.00,,---,0.00,VWS V14.00,2013-02-27 09:58:00,
2013-02-27 05:03:00,35.2,31.5,29.59,North,0,0.0,0.0,86,0.00,,---,0.00,VWS V14.00,2013-02-27 10:03:00,
2013-02-27 05:08:00,35.2,31.8,29.59,North,0,0.0,0.0,87,0.00,,---,0.00,VWS V14.00,2013-02-27 10:08:00,
2013-02-27 05:13:00,35.2,31.8,29.59,North,0,0.0,0.0,87,0.00,,---,0.00,VWS V14.00,2013-02-27 10:13:00,
2013-02-27 05:18:00,35.4,31.9,29.56,North,0,0.0,0.0,87,0.00,,---,0.00,VWS V14.00,2013-02-27 10:18:00,
2013-02-27 05:23:00,35.6,32.1,29.56,North,0,0.0,0.0,87,0.00,,---,0.00,VWS V14.00,2013-02-27 10:23:00,
2013-02-27 05:29:00,35.8,32.6,29.56,North,0,0.0,0.0,88,0.00,,---,0.00,VWS V14.00,2013-02-27 10:29:00,
2013-02-27 05:34:00,36.1,32.9,29.56,North,0,0.0,0.0,88,0.00,,---,0.00,VWS V14.00,2013-02-27 10:34:00,
2013-02-27 05:39:00,36.1,32.9,29.56,North,0,0.0,0.0,88,0.00,,---,0.00,VWS V14.00,2013-02-27 10:39:00,
2013-02-27 05:44:00,36.1,32.9,29.56,North,0,0.0,0.0,88,0.00,,---,0.00,VWS V14.00,2013-02-27 10:44:00,
2013-02-27 05:49:00,36.3,33.1,29.56,North,0,0.0,0.0,88,0.00,,---,0.00,VWS V14.00,2013-02-27 10:49:00,
2013-02-27 05:54:00,36.7,33.8,29.56,North,0,0.0,0.0,89,0.00,,---,0.00,VWS V14.00,2013-02-27 10:54:00,
2013-02-27 05:59:00,36.9,33.9,29.56,North,0,0.0,0.0,89,0.00,,---,0.00,VWS V14.00,2013-02-27 10:59:00,
2013-02-27 06:04:00,37.0,34.1,29.56,North,0,0.0,0.0,89,0.00,,---,0.00,VWS V14.00,2013-02-27 11:04:00,
2013-02-27 06:09:00,37.0,34.1,29.56,North,0,0.0,0.0,89,0.00,,---,0.00,VWS V14.00,2013-02-27 11:09:00,
2013-02-27 06:14:00,37.2,34.3,29.56,North,0,0.0,0.0,89,0.00,,---,0.00,VWS V14.00,2013-02-27 11:14:00,
2013-02-27 06:19:00,37.0,34.1,29.53,North,0,0.0,0.0,89,0.00,,---,0.00,VWS V14.00,2013-02-27 11:19:00,
2013-02-27 06:24:00,37.0,34.1,29.53,North,0,0.0,0.0,89,0.00,,---,0.00,VWS V14.00,2013-02-27 11:24:00,
2013-02-27 06:30:00,37.6,34.6,29.53,North,0,0.0,0.0,89,0.00,,---,0.00,VWS V14.00,2013-02-27 11:30:00,
2013-02-27 06:35:00,37.9,35.0,29.53,North,0,0.0,0.0,89,0.00,,---,0.00,VWS V14.00,2013-02-27 11:35:00,
2013-02-27 06:40:00,37.8,34.8,29.53,North,0,0.0,0.0,89,0.00,,---,0.00,VWS V14.00,2013-02-27 11:40:00,
2013-02-27 06:45:00,38.1,35.5,29.53,North,0,0.0,0.0,90,0.00,,---,0.00,VWS V14.00,2013-02-27 11:45:00,
2013-02-27 06:50:00,38.3,35.6,29.50,North,0,0.0,0.0,90,0.00,,---,0.00,VWS V14.00,2013-02-27 11:50:00,
2013-02-27 06:55:00,38.1,35.5,29.50,North,0,0.0,0.0,90,0.00,,---,0.00,VWS V14.00,2013-02-27 11:55:00,
2013-02-27 07:00:00,38.1,35.5,29.50,North,0,0.0,0.0,90,0.00,,---,0.00,VWS V14.00,2013-02-27 12:00:00,
2013-02-27 07:05:00,38.5,35.8,29.50,North,0,0.0,0.0,90,0.00,,---,0.00,VWS V14.00,2013-02-27 12:05:00,
2013-02-27 07:10:00,38.5,35.8,29.50,North,0,0.0,0.0,90,0.00,,---,0.00,VWS V14.00,2013-02-27 12:10:00,
2013-02-27 07:15:00,38.8,36.2,29.50,North,0,0.0,0.0,90,0.00,,---,0.00,VWS V14.00,2013-02-27 12:15:00,
2013-02-27 07:20:00,38.7,36.0,29.50,North,0,0.0,0.0,90,0.00,,---,0.00,VWS V14.00,2013-02-27 12:20:00,
2013-02-27 07:25:00,38.5,35.8,29.50,North,0,0.0,0.0,90,0.00,,---,0.00,VWS V14.00,2013-02-27 12:25:00,
2013-02-27 07:30:00,38.8,36.2,29.50,North,0,0.0,0.0,90,0.00,,---,0.00,VWS V14.00,2013-02-27 12:30:00,
2013-02-27 07:35:00,38.7,36.0,29.50,North,0,0.0,0.0,90,0.00,,---,0.00,VWS V14.00,2013-02-27 12:35:00,
2013-02-27 07:40:00,38.5,35.8,29.50,North,0,0.0,0.0,90,0.00,,---,0.00,VWS V14.00,2013-02-27 12:40:00,
2013-02-27 07:45:00,38.7,36.0,29.50,North,0,0.0,0.0,90,0.00,,---,0.00,VWS V14.00,2013-02-27 12:45:00,
2013-02-27 07:50:00,38.8,36.4,29.47,North,0,0.0,0.0,91,0.00,,---,0.00,VWS V14.00,2013-02-27 12:50:00,
2013-02-27 07:56:00,38.8,36.4,29.47,North,0,0.0,0.0,91,0.00,,---,0.00,VWS V14.00,2013-02-27 12:56:00,
2013-02-27 08:01:00,38.7,36.3,29.47,North,0,0.0,0.0,91,0.00,,---,0.00,VWS V14.00,2013-02-27 13:01:00,
2013-02-27 08:06:00,38.8,36.4,29.47,North,0,0.0,0.0,91,0.00,,---,0.00,VWS V14.00,2013-02-27 13:06:00,
2013-02-27 08:11:00,38.8,36.4,29.47,North,0,0.0,0.0,91,0.00,,---,0.00,VWS V14.00,2013-02-27 13:11:00,
2013-02-27 08:16:00,38.8,36.4,29.47,North,0,0.0,0.0,91,0.00,,---,0.00,VWS V14.00,2013-02-27 13:16:00,
2013-02-27 08:21:00,38.8,36.4,29.47,North,0,0.0,0.0,91,0.00,,---,0.00,VWS V14.00,2013-02-27 13:21:00,
2013-02-27 08:26:00,39.0,36.6,29.47,North,0,0.0,0.0,91,0.00,,---,0.00,VWS V14.00,2013-02-27 13:26:00,
2013-02-27 08:31:00,39.2,36.8,29.47,North,0,0.0,0.0,91,0.00,,---,0.00,VWS V14.00,2013-02-27 13:31:00,
2013-02-27 08:36:00,39.2,36.8,29.47,North,0,0.0,0.0,91,0.00,,---,0.00,VWS V14.00,2013-02-27 13:36:00,
2013-02-27 08:41:00,39.0,36.6,29.47,North,0,0.0,0.0,91,0.00,,---,0.00,VWS V14.00,2013-02-27 13:41:00,
2013-02-27 08:47:00,39.2,36.8,29.44,North,0,0.0,0.0,91,0.00,,---,0.00,VWS V14.00,2013-02-27 13:47:00,
2013-02-27 08:52:00,39.2,36.8,29.44,North,0,0.0,0.0,91,0.00,,---,0.00,VWS V14.00,2013-02-27 13:52:00,
2013-02-27 08:58:00,39.4,37.0,29.44,North,0,0.0,0.0,91,0.00,,---,0.00,VWS V14.00,2013-02-27 13:58:00,
2013-02-27 09:03:00,39.4,37.0,29.47,North,0,0.0,0.0,91,0.00,,---,0.00,VWS V14.00,2013-02-27 14:03:00,
2013-02-27 09:08:00,39.6,37.2,29.47,North,0,0.0,0.0,91,0.00,,---,0.00,VWS V14.00,2013-02-27 14:08:00,
2013-02-27 09:13:00,39.7,37.3,29.47,North,0,0.0,0.0,91,0.00,,---,0.00,VWS V14.00,2013-02-27 14:13:00,
2013-02-27 09:19:00,39.7,37.3,29.44,North,0,0.0,0.0,91,0.00,,---,0.00,VWS V14.00,2013-02-27 14:19:00,
2013-02-27 09:24:00,39.7,37.3,29.44,North,0,0.0,0.0,91,0.00,,---,0.00,VWS V14.00,2013-02-27 14:24:00,
2013-02-27 09:29:00,39.7,37.3,29.44,North,0,0.0,0.0,91,0.00,,---,0.00,VWS V14.00,2013-02-27 14:29:00,
2013-02-27 09:34:00,39.7,37.3,29.44,North,0,0.0,0.0,91,0.00,,---,0.00,VWS V14.00,2013-02-27 14:34:00,
2013-02-27 09:39:00,39.9,37.5,29.44,North,0,0.0,0.0,91,0.00,,---,0.00,VWS V14.00,2013-02-27 14:39:00,
2013-02-27 09:44:00,39.9,37.5,29.44,North,0,0.0,0.0,91,0.00,,---,0.00,VWS V14.00,2013-02-27 14:44:00,
2013-02-27 09:50:00,40.1,37.7,29.44,North,0,0.0,0.0,91,0.00,,---,0.00,VWS V14.00,2013-02-27 14:50:00,
2013-02-27 09:55:00,40.3,38.2,29.44,North,0,0.0,0.0,92,0.00,,---,0.00,VWS V14.00,2013-02-27 14:55:00,
2013-02-27 10:00:00,40.1,37.7,29.44,North,0,0.0,0.0,91,0.00,,---,0.00,VWS V14.00,2013-02-27 15:00:00,
2013-02-27 10:05:00,40.1,37.7,29.41,North,0,0.0,0.0,91,0.00,,---,0.00,VWS V14.00,2013-02-27 15:05:00,
2013-02-27 10:10:00,40.3,37.9,29.41,North,0,0.0,0.0,91,0.00,,---,0.00,VWS V14.00,2013-02-27 15:10:00,
2013-02-27 10:15:00,40.3,37.9,29.41,North,0,0.0,0.0,91,0.00,,---,0.00,VWS V14.00,2013-02-27 15:15:00,
2013-02-27 10:21:00,40.3,37.9,29.41,North,0,0.0,0.0,91,0.00,,---,0.00,VWS V14.00,2013-02-27 15:21:00,
2013-02-27 10:26:00,40.5,38.0,29.41,North,0,0.0,0.0,91,0.00,,---,0.00,VWS V14.00,2013-02-27 15:26:00,
2013-02-27 10:31:00,40.5,38.0,29.41,North,0,0.0,0.0,91,0.00,,---,0.00,VWS V14.00,2013-02-27 15:31:00,
2013-02-27 10:36:00,40.5,38.0,29.41,North,0,0.0,0.0,91,0.00,,---,0.00,VWS V14.00,2013-02-27 15:36:00,
2013-02-27 10:42:00,40.3,37.9,29.41,North,0,0.0,0.0,91,0.00,,---,0.00,VWS V14.00,2013-02-27 15:42:00,
2013-02-27 10:47:00,40.1,37.7,29.41,North,0,0.0,0.0,91,0.00,,---,0.00,VWS V14.00,2013-02-27 15:47:00,
2013-02-27 10:52:00,40.1,37.7,29.41,North,0,0.0,0.0,91,0.00,,---,0.00,VWS V14.00,2013-02-27 15:52:00,
2013-02-27 10:57:00,40.1,37.7,29.41,North,0,0.0,0.0,91,0.00,,---,0.00,VWS V14.00,2013-02-27 15:57:00,
2013-02-27 11:03:00,40.3,37.9,29.41,North,0,0.0,0.0,91,0.00,,---,0.00,VWS V14.00,2013-02-27 16:03:00,
2013-02-27 11:08:00,40.1,37.7,29.41,North,0,0.0,0.0,91,0.00,,---,0.00,VWS V14.00,2013-02-27 16:08:00,
2013-02-27 11:13:00,40.5,38.0,29.41,North,0,0.0,0.0,91,0.00,,---,0.00,VWS V14.00,2013-02-27 16:13:00,
2013-02-27 11:18:00,40.5,38.0,29.38,North,0,0.0,0.0,91,0.00,,---,0.00,VWS V14.00,2013-02-27 16:18:00,
2013-02-27 11:23:00,40.5,38.0,29.38,North,0,0.0,0.0,91,0.00,,---,0.00,VWS V14.00,2013-02-27 16:23:00,
2013-02-27 11:28:00,40.5,38.0,29.38,North,0,0.0,0.0,91,0.00,,---,0.00,VWS V14.00,2013-02-27 16:28:00,
2013-02-27 11:33:00,40.5,38.0,29.35,North,0,0.0,0.0,91,0.00,,---,0.00,VWS V14.00,2013-02-27 16:33:00,
2013-02-27 11:38:00,40.5,38.0,29.35,North,0,0.0,0.0,91,0.00,,---,0.00,VWS V14.00,2013-02-27 16:38:00,
2013-02-27 11:43:00,40.5,37.8,29.35,North,0,0.0,0.0,90,0.00,,---,0.00,VWS V14.00,2013-02-27 16:43:00,
2013-02-27 11:48:00,40.3,37.6,29.35,North,0,0.0,0.0,90,0.00,,---,0.00,VWS V14.00,2013-02-27 16:48:00,
2013-02-27 11:53:00,40.3,37.6,29.35,North,0,0.0,0.0,90,0.00,,---,0.00,VWS V14.00,2013-02-27 16:53:00,
2013-02-27 11:58:00,40.3,37.6,29.35,North,0,0.0,0.0,90,0.00,,---,0.00,VWS V14.00,2013-02-27 16:58:00,
2013-02-27 12:03:00,40.1,37.4,29.35,North,0,0.0,0.0,90,0.00,,---,0.00,VWS V14.00,2013-02-27 17:03:00,
2013-02-27 12:08:00,40.3,37.6,29.35,North,0,0.0,0.0,90,0.00,,---,0.00,VWS V14.00,2013-02-27 17:08:00,
2013-02-27 12:13:00,40.1,37.4,29.35,North,0,0.0,0.0,90,0.00,,---,0.00,VWS V14.00,2013-02-27 17:13:00,
2013-02-27 12:18:00,40.1,37.4,29.35,North,0,0.0,0.0,90,0.00,,---,0.00,VWS V14.00,2013-02-27 17:18:00,
2013-02-27 12:23:00,40.1,37.4,29.35,North,0,0.0,0.0,90,0.00,,---,0.00,VWS V14.00,2013-02-27 17:23:00,
2013-02-27 12:28:00,40.1,37.4,29.35,North,0,0.0,0.0,90,0.00,,---,0.00,VWS V14.00,2013-02-27 17:28:00,
2013-02-27 12:33:00,40.1,37.1,29.35,North,0,0.0,0.0,89,0.00,,---,0.00,VWS V14.00,2013-02-27 17:33:00,
2013-02-27 12:38:00,40.1,37.1,29.35,North,0,0.0,0.0,89,0.00,,---,0.00,VWS V14.00,2013-02-27 17:38:00,
2013-02-27 12:43:00,39.9,37.0,29.35,North,0,0.0,0.0,89,0.00,,---,0.00,VWS V14.00,2013-02-27 17:43:00,
2013-02-27 12:48:00,39.9,37.0,29.32,North,0,0.0,0.0,89,0.00,,---,0.00,VWS V14.00,2013-02-27 17:48:00,
2013-02-27 12:53:00,39.9,37.0,29.32,North,0,0.0,0.0,89,0.00,,---,0.00,VWS V14.00,2013-02-27 17:53:00,
2013-02-27 12:58:00,39.9,37.0,29.32,North,0,0.0,0.0,89,0.00,,---,0.00,VWS V14.00,2013-02-27 17:58:00,
2013-02-27 13:03:00,39.9,37.0,29.32,North,0,0.0,0.0,89,0.00,,---,0.00,VWS V14.00,2013-02-27 18:03:00,
2013-02-27 13:08:00,39.7,36.5,29.32,North,0,0.0,0.0,88,0.00,,---,0.00,VWS V14.00,2013-02-27 18:08:00,
2013-02-27 13:13:00,39.7,36.5,29.32,North,0,0.0,0.0,88,0.00,,---,0.00,VWS V14.00,2013-02-27 18:13:00,
2013-02-27 13:18:00,39.7,36.5,29.32,North,0,0.0,0.0,88,0.00,,---,0.00,VWS V14.00,2013-02-27 18:18:00,
2013-02-27 13:24:00,39.6,36.3,29.32,North,0,0.0,0.0,88,0.00,,---,0.00,VWS V14.00,2013-02-27 18:24:00,
2013-02-27 13:29:00,39.7,36.5,29.32,North,0,0.0,0.0,88,0.00,,---,0.00,VWS V14.00,2013-02-27 18:29:00,
2013-02-27 13:34:00,39.6,36.3,29.32,North,0,0.0,0.0,88,0.00,,---,0.00,VWS V14.00,2013-02-27 18:34:00,
2013-02-27 13:39:00,39.4,36.1,29.32,North,0,0.0,0.0,88,0.00,,---,0.00,VWS V14.00,2013-02-27 18:39:00,
2013-02-27 13:44:00,39.2,36.0,29.32,North,0,0.0,0.0,88,0.00,,---,0.00,VWS V14.00,2013-02-27 18:44:00,
2013-02-27 13:49:00,39.2,36.0,29.32,North,0,0.0,0.0,88,0.00,,---,0.00,VWS V14.00,2013-02-27 18:49:00,
2013-02-27 13:54:00,38.8,35.6,29.32,North,0,0.0,0.0,88,0.00,,---,0.00,VWS V14.00,2013-02-27 18:54:00,
2013-02-27 13:59:00,38.8,35.6,29.32,North,0,0.0,0.0,88,0.00,,---,0.00,VWS V14.00,2013-02-27 18:59:00,
2013-02-27 14:04:00,38.8,35.6,29.29,North,0,0.0,0.0,88,0.00,,---,0.00,VWS V14.00,2013-02-27 19:04:00,
2013-02-27 14:09:00,38.7,35.4,29.29,North,0,0.0,0.0,88,0.00,,---,0.00,VWS V14.00,2013-02-27 19:09:00,
2013-02-27 14:14:00,38.7,35.4,29.29,North,0,0.0,0.0,88,0.00,,---,0.00,VWS V14.00,2013-02-27 19:14:00,
2013-02-27 14:19:00,38.7,35.4,29.32,North,0,0.0,0.0,88,0.00,,---,0.00,VWS V14.00,2013-02-27 19:19:00,
2013-02-27 14:24:00,38.7,35.4,29.32,North,0,0.0,0.0,88,0.00,,---,0.00,VWS V14.00,2013-02-27 19:24:00,
2013-02-27 14:29:00,38.5,35.2,29.32,North,0,0.0,0.0,88,0.00,,---,0.00,VWS V14.00,2013-02-27 19:29:00,
2013-02-27 14:34:00,38.5,35.2,29.32,North,0,0.0,0.0,88,0.00,,---,0.00,VWS V14.00,2013-02-27 19:34:00,
2013-02-27 14:39:00,38.3,35.1,29.32,North,0,0.0,0.0,88,0.00,,---,0.00,VWS V14.00,2013-02-27 19:39:00,
2013-02-27 14:44:00,38.1,34.9,29.32,North,0,0.0,0.0,88,0.00,,---,0.00,VWS V14.00,2013-02-27 19:44:00,
2013-02-27 14:49:00,37.9,34.7,29.32,North,0,0.0,0.0,88,0.00,,---,0.00,VWS V14.00,2013-02-27 19:49:00,
2013-02-27 14:54:00,38.1,34.9,29.32,North,0,0.0,0.0,88,0.00,,---,0.00,VWS V14.00,2013-02-27 19:54:00,
2013-02-27 14:59:00,37.9,34.7,29.32,North,0,0.0,0.0,88,0.00,,---,0.00,VWS V14.00,2013-02-27 19:59:00,
2013-02-27 15:04:00,37.9,34.7,29.29,North,0,0.0,0.0,88,0.00,,---,0.00,VWS V14.00,2013-02-27 20:04:00,
2013-02-27 15:09:00,38.1,34.9,29.29,North,0,0.0,0.0,88,0.00,,---,0.00,VWS V14.00,2013-02-27 20:09:00,
2013-02-27 15:14:00,38.1,34.9,29.29,North,0,0.0,0.0,88,0.00,,---,0.00,VWS V14.00,2013-02-27 20:14:00,
2013-02-27 15:19:00,38.1,34.9,29.29,North,0,0.0,0.0,88,0.00,,---,0.00,VWS V14.00,2013-02-27 20:19:00,
2013-02-27 15:24:00,38.1,34.9,29.29,North,0,0.0,0.0,88,0.00,,---,0.00,VWS V14.00,2013-02-27 20:24:00,
2013-02-27 15:29:00,38.1,34.9,29.29,North,0,0.0,0.0,88,0.00,,---,0.00,VWS V14.00,2013-02-27 20:29:00,
2013-02-27 15:34:00,38.1,34.9,29.29,North,0,0.0,0.0,88,0.00,,---,0.00,VWS V14.00,2013-02-27 20:34:00,
2013-02-27 15:39:00,37.9,34.7,29.29,North,0,0.0,0.0,88,0.00,,---,0.00,VWS V14.00,2013-02-27 20:39:00,
2013-02-27 15:44:00,37.9,34.7,29.29,North,0,0.0,0.0,88,0.00,,---,0.00,VWS V14.00,2013-02-27 20:44:00,
2013-02-27 15:49:00,37.8,34.5,29.29,North,0,0.0,0.0,88,0.00,,---,0.00,VWS V14.00,2013-02-27 20:49:00,
2013-02-27 15:54:00,37.9,34.7,29.29,North,0,0.0,0.0,88,0.00,,---,0.00,VWS V14.00,2013-02-27 20:54:00,
2013-02-27 15:59:00,37.8,34.5,29.29,North,0,0.0,0.0,88,0.00,,---,0.00,VWS V14.00,2013-02-27 20:59:00,
2013-02-27 16:04:00,37.6,34.3,29.26,North,0,0.0,0.0,88,0.00,,---,0.00,VWS V14.00,2013-02-27 21:04:00,
2013-02-27 16:09:00,37.4,34.2,29.26,North,0,0.0,0.0,88,0.00,,---,0.00,VWS V14.00,2013-02-27 21:09:00,
2013-02-27 16:14:00,37.2,34.0,29.26,North,0,0.0,0.0,88,0.00,,---,0.00,VWS V14.00,2013-02-27 21:14:00,
2013-02-27 16:19:00,37.2,34.0,29.26,North,0,0.0,0.0,88,0.00,,---,0.00,VWS V14.00,2013-02-27 21:19:00,
2013-02-27 16:24:00,37.2,34.0,29.26,North,0,0.0,0.0,88,0.00,,---,0.00,VWS V14.00,2013-02-27 21:24:00,
2013-02-27 16:29:00,37.0,33.8,29.26,North,0,0.0,0.0,88,0.00,,---,0.00,VWS V14.00,2013-02-27 21:29:00,
2013-02-27 16:34:00,37.0,33.8,29.26,North,0,0.0,0.0,88,0.00,,---,0.00,VWS V14.00,2013-02-27 21:34:00,
2013-02-27 16:39:00,37.0,33.8,29.26,North,0,0.0,0.0,88,0.00,,---,0.00,VWS V14.00,2013-02-27 21:39:00,
2013-02-27 16:44:00,37.2,34.0,29.26,North,0,0.0,0.0,88,0.00,,---,0.00,VWS V14.00,2013-02-27 21:44:00,
2013-02-27 16:49:00,37.0,34.1,29.26,North,0,0.0,0.0,89,0.00,,---,0.00,VWS V14.00,2013-02-27 21:49:00,
2013-02-27 16:54:00,37.0,34.1,29.26,North,0,0.0,0.0,89,0.00,,---,0.00,VWS V14.00,2013-02-27 21:54:00,
2013-02-27 16:59:00,37.0,34.1,29.26,North,0,0.0,0.0,89,0.00,,---,0.00,VWS V14.00,2013-02-27 21:59:00,
2013-02-27 17:04:00,37.0,34.1,29.23,North,0,0.0,0.0,89,0.00,,---,0.00,VWS V14.00,2013-02-27 22:04:00,
2013-02-27 17:09:00,37.0,34.1,29.23,North,0,0.0,0.0,89,0.00,,---,0.00,VWS V14.00,2013-02-27 22:09:00,
2013-02-27 17:14:00,37.0,34.1,29.23,North,0,0.0,0.0,89,0.00,,---,0.00,VWS V14.00,2013-02-27 22:14:00,
2013-02-27 17:19:00,37.0,34.1,29.23,North,0,0.0,0.0,89,0.00,,---,0.00,VWS V14.00,2013-02-27 22:19:00,
2013-02-27 17:24:00,36.9,33.9,29.23,North,0,0.0,0.0,89,0.00,,---,0.00,VWS V14.00,2013-02-27 22:24:00,
2013-02-27 17:29:00,36.9,33.9,29.23,North,0,0.0,0.0,89,0.00,,---,0.00,VWS V14.00,2013-02-27 22:29:00,
2013-02-27 17:34:00,36.7,33.8,29.23,North,0,0.0,0.0,89,0.00,,---,0.00,VWS V14.00,2013-02-27 22:34:00,
2013-02-27 17:39:00,36.7,33.8,29.23,North,0,0.0,0.0,89,0.00,,---,0.00,VWS V14.00,2013-02-27 22:39:00,
2013-02-27 17:44:00,36.7,33.8,29.23,North,0,0.0,0.0,89,0.00,,---,0.00,VWS V14.00,2013-02-27 22:44:00,
2013-02-27 17:49:00,36.7,33.8,29.26,North,0,0.0,0.0,89,0.00,,---,0.00,VWS V14.00,2013-02-27 22:49:00,
2013-02-27 17:54:00,36.7,33.8,29.26,North,0,0.0,0.0,89,0.00,,---,0.00,VWS V14.00,2013-02-27 22:54:00,
2013-02-27 17:59:00,36.7,33.8,29.26,North,0,0.0,0.0,89,0.00,,---,0.00,VWS V14.00,2013-02-27 22:59:00,
2013-02-27 18:04:00,36.7,33.8,29.26,North,0,0.0,0.0,89,0.00,,---,0.00,VWS V14.00,2013-02-27 23:04:00,
2013-02-27 18:09:00,36.9,33.9,29.26,North,0,0.0,0.0,89,0.00,,---,0.00,VWS V14.00,2013-02-27 23:09:00,
2013-02-27 18:14:00,36.7,34.0,29.26,North,0,0.0,0.0,90,0.00,,---,0.00,VWS V14.00,2013-02-27 23:14:00,
2013-02-27 18:19:00,36.7,34.0,29.23,North,0,0.0,0.0,90,0.00,,---,0.00,VWS V14.00,2013-02-27 23:19:00,
2013-02-27 18:24:00,36.7,34.0,29.23,North,0,0.0,0.0,90,0.00,,---,0.00,VWS V14.00,2013-02-27 23:24:00,
2013-02-27 18:29:00,36.9,34.2,29.23,North,0,0.0,0.0,90,0.00,,---,0.00,VWS V14.00,2013-02-27 23:29:00,
2013-02-27 18:34:00,36.9,34.2,29.23,North,0,0.0,0.0,90,0.00,,---,0.00,VWS V14.00,2013-02-27 23:34:00,
2013-02-27 18:39:00,36.9,34.2,29.23,North,0,0.0,0.0,90,0.00,,---,0.00,VWS V14.00,2013-02-27 23:39:00,
2013-02-27 18:44:00,36.9,34.2,29.23,North,0,0.0,0.0,90,0.00,,---,0.00,VWS V14.00,2013-02-27 23:44:00,
2013-02-27 18:49:00,36.9,34.2,29.23,North,0,0.0,0.0,90,0.00,,---,0.00,VWS V14.00,2013-02-27 23:49:00,
2013-02-27 18:54:00,36.9,34.2,29.23,North,0,0.0,0.0,90,0.00,,---,0.00,VWS V14.00,2013-02-27 23:54:00,
2013-02-27 18:59:00,36.9,34.5,29.23,North,0,0.0,0.0,91,0.00,,---,0.00,VWS V14.00,2013-02-27 23:59:00,
2013-02-27 19:04:00,36.9,34.5,29.21,North,0,0.0,0.0,91,0.00,,---,0.00,VWS V14.00,2013-02-28 00:04:00,
2013-02-27 19:09:00,37.0,34.7,29.21,North,0,0.0,0.0,91,0.00,,---,0.00,VWS V14.00,2013-02-28 00:09:00,
2013-02-27 19:14:00,36.9,34.5,29.21,North,0,0.0,0.0,91,0.00,,---,0.00,VWS V14.00,2013-02-28 00:14:00,
2013-02-27 19:20:00,36.9,34.5,29.21,North,0,0.0,0.0,91,0.00,,---,0.00,VWS V14.00,2013-02-28 00:20:00,
2013-02-27 19:25:00,36.9,34.5,29.21,North,0,0.0,0.0,91,0.00,,---,0.00,VWS V14.00,2013-02-28 00:25:00,
2013-02-27 19:30:00,37.0,34.7,29.21,North,0,0.0,0.0,91,0.00,,---,0.00,VWS V14.00,2013-02-28 00:30:00,
2013-02-27 19:35:00,37.2,34.8,29.21,North,0,0.0,0.0,91,0.00,,---,0.00,VWS V14.00,2013-02-28 00:35:00,
2013-02-27 19:40:00,37.0,34.7,29.21,North,0,0.0,0.0,91,0.00,,---,0.00,VWS V14.00,2013-02-28 00:40:00,
2013-02-27 19:45:00,37.0,34.7,29.21,North,0,0.0,0.0,91,0.00,,---,0.00,VWS V14.00,2013-02-28 00:45:00,
2013-02-27 19:50:00,37.0,34.7,29.21,North,0,0.0,0.0,91,0.00,,---,0.00,VWS V14.00,2013-02-28 00:50:00,
2013-02-27 19:55:00,37.2,35.1,29.21,North,0,0.0,0.0,92,0.00,,---,0.00,VWS V14.00,2013-02-28 00:55:00,
2013-02-27 20:00:00,37.2,35.1,29.21,North,0,0.0,0.0,92,0.00,,---,0.00,VWS V14.00,2013-02-28 01:00:00,
2013-02-27 20:05:00,37.2,35.1,29.18,North,0,0.0,0.0,92,0.00,,---,0.00,VWS V14.00,2013-02-28 01:05:00,
2013-02-27 20:10:00,37.4,35.0,29.18,North,0,0.0,0.0,91,0.00,,---,0.00,VWS V14.00,2013-02-28 01:10:00,
2013-02-27 20:15:00,37.4,35.0,29.18,North,0,0.0,0.0,91,0.00,,---,0.00,VWS V14.00,2013-02-28 01:15:00,
2013-02-27 20:20:00,37.4,35.3,29.18,North,0,0.0,0.0,92,0.00,,---,0.00,VWS V14.00,2013-02-28 01:20:00,
2013-02-27 20:25:00,37.4,35.3,29.18,North,0,0.0,0.0,92,0.00,,---,0.00,VWS V14.00,2013-02-28 01:25:00,
2013-02-27 20:30:00,37.4,35.3,29.18,North,0,0.0,0.0,92,0.00,,---,0.00,VWS V14.00,2013-02-28 01:30:00,
2013-02-27 20:35:00,37.0,34.9,29.18,North,0,0.0,0.0,92,0.00,,---,0.00,VWS V14.00,2013-02-28 01:35:00,
2013-02-27 20:40:00,37.0,34.9,29.18,North,0,0.0,0.0,92,0.00,,---,0.00,VWS V14.00,2013-02-28 01:40:00,
2013-02-27 20:45:00,37.0,34.9,29.18,North,0,0.0,0.0,92,0.00,,---,0.00,VWS V14.00,2013-02-28 01:45:00,
2013-02-27 20:50:00,37.0,34.9,29.18,North,0,0.0,0.0,92,0.00,,---,0.00,VWS V14.00,2013-02-28 01:50:00,
2013-02-27 20:55:00,37.0,34.9,29.18,North,0,0.0,0.0,92,0.00,,---,0.00,VWS V14.00,2013-02-28 01:55:00,
2013-02-27 21:00:00,37.0,34.9,29.18,North,0,0.0,0.0,92,0.00,,---,0.00,VWS V14.00,2013-02-28 02:00:00,
2013-02-27 21:05:00,37.0,34.9,29.18,North,0,0.0,0.0,92,0.00,,---,0.00,VWS V14.00,2013-02-28 02:05:00,
2013-02-27 21:10:00,37.0,34.9,29.18,North,0,0.0,0.0,92,0.00,,---,0.00,VWS V14.00,2013-02-28 02:10:00,
2013-02-27 21:15:00,37.0,34.9,29.18,North,0,0.0,0.0,92,0.00,,---,0.00,VWS V14.00,2013-02-28 02:15:00,
2013-02-27 21:20:00,36.9,34.8,29.18,North,0,0.0,0.0,92,0.00,,---,0.00,VWS V14.00,2013-02-28 02:20:00,
2013-02-27 21:25:00,37.0,34.9,29.18,North,0,0.0,0.0,92,0.00,,---,0.00,VWS V14.00,2013-02-28 02:25:00,
2013-02-27 21:30:00,36.9,34.8,29.18,North,0,0.0,0.0,92,0.00,,---,0.00,VWS V14.00,2013-02-28 02:30:00,
2013-02-27 21:35:00,36.9,34.8,29.15,North,0,0.0,0.0,92,0.00,,---,0.00,VWS V14.00,2013-02-28 02:35:00,
2013-02-27 21:40:00,36.9,34.8,29.15,North,0,0.0,0.0,92,0.00,,---,0.00,VWS V14.00,2013-02-28 02:40:00,
2013-02-27 21:45:00,36.9,34.8,29.15,North,0,0.0,0.0,92,0.00,,---,0.00,VWS V14.00,2013-02-28 02:45:00,
2013-02-27 21:50:00,36.9,34.8,29.15,North,0,0.0,0.0,92,0.00,,---,0.00,VWS V14.00,2013-02-28 02:50:00,
2013-02-27 21:55:00,36.9,34.8,29.15,North,0,0.0,0.0,92,0.00,,---,0.00,VWS V14.00,2013-02-28 02:55:00,
2013-02-27 22:00:00,36.7,34.6,29.15,North,0,0.0,0.0,92,0.00,,---,0.00,VWS V14.00,2013-02-28 03:00:00,
2013-02-27 22:05:00,36.3,34.2,29.15,North,0,0.0,0.0,92,0.00,,---,0.00,VWS V14.00,2013-02-28 03:05:00,
2013-02-27 22:10:00,36.5,34.4,29.15,North,0,0.0,0.0,92,0.00,,---,0.00,VWS V14.00,2013-02-28 03:10:00,
2013-02-27 22:15:00,36.5,34.4,29.15,North,0,0.0,0.0,92,0.00,,---,0.00,VWS V14.00,2013-02-28 03:15:00,
2013-02-27 22:20:00,36.5,34.4,29.15,North,0,0.0,0.0,92,0.00,,---,0.00,VWS V14.00,2013-02-28 03:20:00,
2013-02-27 22:25:00,36.3,34.2,29.15,North,0,0.0,0.0,92,0.00,,---,0.00,VWS V14.00,2013-02-28 03:25:00,
2013-02-27 22:30:00,36.3,34.2,29.15,North,0,0.0,0.0,92,0.00,,---,0.00,VWS V14.00,2013-02-28 03:30:00,
2013-02-27 22:35:00,36.1,34.0,29.18,North,0,0.0,0.0,92,0.00,,---,0.00,VWS V14.00,2013-02-28 03:35:00,
2013-02-27 22:40:00,36.0,33.9,29.18,North,0,0.0,0.0,92,0.00,,---,0.00,VWS V14.00,2013-02-28 03:40:00,
2013-02-27 22:45:00,35.8,33.7,29.18,North,0,0.0,0.0,92,0.00,,---,0.00,VWS V14.00,2013-02-28 03:45:00,
2013-02-27 22:50:00,35.8,33.7,29.18,North,0,0.0,0.0,92,0.00,,---,0.00,VWS V14.00,2013-02-28 03:50:00,
2013-02-27 22:55:00,35.6,33.2,29.18,North,0,0.0,0.0,91,0.00,,---,0.00,VWS V14.00,2013-02-28 03:55:00,
2013-02-27 23:00:00,35.4,33.3,29.18,North,0,0.0,0.0,92,0.00,,---,0.00,VWS V14.00,2013-02-28 04:00:00,
2013-02-27 23:06:00,35.4,33.3,29.15,North,0,0.0,0.0,92,0.00,,---,0.00,VWS V14.00,2013-02-28 04:06:00,
2013-02-27 23:11:00,35.2,33.2,29.15,North,0,0.0,0.0,92,0.00,,---,0.00,VWS V14.00,2013-02-28 04:11:00,
2013-02-27 23:16:00,35.1,33.0,29.15,North,0,0.0,0.0,92,0.00,,---,0.00,VWS V14.00,2013-02-28 04:16:00,
2013-02-27 23:21:00,35.1,33.0,29.15,North,0,0.0,0.0,92,0.00,,---,0.00,VWS V14.00,2013-02-28 04:21:00,
2013-02-27 23:26:00,35.1,33.0,29.15,North,0,0.0,0.0,92,0.00,,---,0.00,VWS V14.00,2013-02-28 04:26:00,
2013-02-27 23:32:00,34.9,32.8,29.15,North,0,0.0,0.0,92,0.00,,---,0.00,VWS V14.00,2013-02-28 04:32:00,
2013-02-27 23:37:00,34.9,32.8,29.15,North,0,0.0,0.0,92,0.00,,---,0.00,VWS V14.00,2013-02-28 04:37:00,
2013-02-27 23:42:00,34.9,32.8,29.15,North,0,0.0,0.0,92,0.00,,---,0.00,VWS V14.00,2013-02-28 04:42:00,
2013-02-27 23:47:00,34.9,32.8,29.15,North,0,0.0,0.0,92,0.00,,---,0.00,VWS V14.00,2013-02-28 04:47:00,
2013-02-27 23:52:00,34.7,32.6,29.15,North,0,0.0,0.0,92,0.00,,---,0.00,VWS V14.00,2013-02-28 04:52:00,
2013-02-27 23:57:00,34.5,32.4,29.15,North,0,0.0,0.0,92,0.00,,---,0.00,VWS V14.00,2013-02-28 04:57:00,